EW3148 Weather Reports


time (UTC)temp
C
wind
direction
speed
KPH
gust
KPH
rain 1hr
cm
rain 24hr
cm
rain mn
cm
humidity
%
barometer
mb
20260906183026 32 338 1.6 9.7 0.00 0.00 0.00 53 1010.9
20260906182051 32 301 3.2 9.7 0.00 0.00 0.00 55 1010.9
20260906181106 31 300 3.2 11.3 0.00 0.00 0.00 58 1010.9
20260906180036 31 248 3.2 11.3 0.00 0.00 0.00 61 1011.1
20260906175007 31 227 3.2 12.9 0.00 0.00 0.00 64 1011.4
20260906173955 30 236 3.2 14.5 0.00 0.00 0.00 63 1011.6
20260906172936 31 211 3.2 14.5 0.00 0.00 0.00 61 1011.6
20260906171905 32 241 1.6 4.8 0.00 0.00 0.00 59 1011.8
20260906170907 32 5 1.6 6.4 0.00 0.00 0.00 58 1011.9
20260906165908 32 306 1.6 6.4 0.00 0.00 0.00 57 1011.9
20260906164854 32 5 3.2 11.3 0.00 0.00 0.00 59 1011.9
20260906162729 32 323 1.6 8.0 0.00 0.00 0.00 62 1012.0
20260906160618 31 294 1.6 6.4 0.00 0.00 0.00 66 1012.0
20260906155639 30 301 1.6 6.4 0.00 0.00 0.00 67 1012.1
20260906154634 30 35 0.0 6.4 0.00 0.00 0.00 69 1012.0
20260906153617 29 178 0.0 1.6 0.00 0.00 0.00 71 1012.0
20260906152614 28 178 0.0 4.8 0.00 0.00 0.00 73 1011.9
20260906151555 28 130 0.0 1.6 0.00 0.00 0.00 78 1011.8
20260906150551 28 204 0.0 4.8 0.00 0.00 0.00 80 1011.7
20260906145551 27 171 0.0 4.8 0.00 0.00 0.00 80 1011.7
20260906144544 27 274 0.0 4.8 0.00 0.00 0.00 81 1011.5
20260906143601 27 220 1.6 8.0 0.00 0.00 0.00 81 1011.7
20260906141427 27 218 1.6 6.4 0.00 0.00 0.00 80 1011.5
20260906135312 27 127 3.2 11.3 0.00 0.00 0.00 79 1011.3
20260906134253 27 139 3.2 17.7 0.00 0.00 0.00 81 1011.2
20260906133218 27 189 4.8 17.7 0.00 0.00 0.00 82 1011.1
20260906132222 26 188 3.2 9.7 0.00 0.00 0.00 83 1011.1
20260906131218 26 173 3.2 9.7 0.00 0.00 0.00 84 1011.1
20260906130151 25 120 1.6 9.7 0.00 0.00 0.00 85 1010.7
20260906125208 25 121 0.0 3.2 0.00 0.00 0.00 85 1010.5
20260906124219 25 121 0.0 4.8 0.00 0.00 0.00 86 1010.3
20260906123205 25 119 0.0 4.8 0.00 0.00 0.00 86 1010.4
20260906122227 25 114 0.0 3.2 0.00 0.00 0.00 85 1010.2
20260906120114 25 114 0.0 3.2 0.00 0.00 0.00 84 1010.0
20260906115055 25 153 0.0 1.6 0.00 0.00 0.00 84 1009.9
20260906114028 25 221 0.0 0.0 0.00 0.00 0.00 83 1009.8
20260906113038 25 221 0.0 0.0 0.00 0.00 0.00 83 1009.5
20260906112036 25 221 0.0 0.0 0.00 0.00 0.00 82 1009.3
20260906111006 25 221 0.0 0.0 0.00 0.00 0.00 82 1009.1
20260906105956 26 221 0.0 0.0 0.00 0.00 0.00 82 1009.1
20260906104933 26 221 0.0 0.0 0.00 0.00 0.00 82 1009.0
20260906103924 26 221 0.0 0.0 0.00 0.00 0.00 82 1008.8
20260906102924 26 221 0.0 0.0 0.00 0.00 0.00 82 1008.8
20260906101853 26 221 0.0 0.0 0.00 0.00 0.00 82 1008.8
20260906100907 26 202 0.0 1.6 0.00 0.00 0.00 82 1008.8
20260906095834 26 220 0.0 1.6 0.00 0.00 0.00 82 1009.0
20260906094830 26 221 0.0 3.2 0.00 0.00 0.00 82 1009.0
20260906093841 26 277 0.0 0.0 0.00 0.00 0.00 81 1009.0
20260906092840 26 165 0.0 1.6 0.00 0.00 0.00 81 1009.1
20260906091811 26 252 0.0 3.2 0.00 0.00 0.00 81 1009.1
20260906090820 26 227 0.0 4.8 0.00 0.00 0.00 81 1009.1
20260906084646 26 200 1.6 11.3 0.00 0.00 0.00 80 1009.0
20260906083620 26 206 1.6 11.3 0.00 0.00 0.00 79 1009.0
20260906082609 26 182 1.6 8.0 0.00 0.00 0.00 79 1009.0
20260906080456 27 207 3.2 17.7 0.00 0.00 0.00 78 1009.2
20260906075454 27 172 3.2 17.7 0.00 0.00 0.00 77 1009.3
20260906073336 27 199 4.8 14.5 0.00 0.00 0.00 76 1009.7
20260906072337 27 196 3.2 14.5 0.00 0.00 0.00 76 1009.7
20260906071335 27 203 1.6 8.0 0.00 0.00 0.00 75 1009.7
20260906070331 27 180 3.2 11.3 0.00 0.00 0.00 75 1009.9
20260906065347 27 164 4.8 12.9 0.00 0.00 0.00 75 1010.0
20260906064350 27 162 3.2 14.5 0.00 0.00 0.00 74 1010.1
20260906063335 28 163 4.8 14.5 0.00 0.00 0.00 74 1010.1
20260906062345 28 198 4.8 12.9 0.00 0.00 0.00 74 1010.2
20260906061405 28 197 4.8 12.9 0.00 0.00 0.00 73 1010.2
20260906055255 28 229 6.4 12.9 0.00 0.00 0.00 73 1010.3
20260906054235 28 176 3.2 12.9 0.00 0.00 0.00 72 1010.2
20260906052103 28 181 6.4 20.9 0.00 0.00 0.00 71 1010.1
20260906045859 29 159 8.0 19.3 0.00 0.00 0.00 69 1010.2
20260906044919 29 190 6.4 16.1 0.00 0.00 0.00 68 1010.3
20260906042749 29 200 6.4 17.7 0.00 0.00 0.00 67 1010.4
20260906041742 29 176 4.8 12.9 0.00 0.00 0.00 67 1010.4
20260906040750 30 171 3.2 12.9 0.00 0.00 0.00 67 1010.4
20260906034641 30 231 8.0 16.1 0.00 0.00 0.00 66 1010.3
20260906033659 30 177 4.8 17.7 0.00 0.00 0.00 65 1010.2
20260906032645 30 123 6.4 17.7 0.00 0.00 0.00 64 1010.2
20260906031647 30 140 8.0 17.7 0.00 0.00 0.00 62 1010.0
20260906030619 31 157 8.0 17.7 0.00 0.00 0.00 61 1009.7
20260906025544 31 163 6.4 17.7 0.00 0.00 0.00 58 1009.5
20260906024553 31 90 4.8 17.7 0.00 0.00 0.00 58 1009.3
20260906023549 31 132 4.8 11.3 0.00 0.00 0.00 57 1009.1
20260906022543 31 109 4.8 16.1 0.00 0.00 0.00 56 1008.7
20260906021514 32 134 3.2 11.3 0.00 0.00 0.00 55 1008.6
20260906015359 32 148 4.8 16.1 0.00 0.00 0.00 53 1008.3
20260906014420 32 148 3.2 12.9 0.00 0.00 0.00 52 1008.3
20260906013433 33 102 4.8 12.9 0.00 0.00 0.00 51 1008.2
20260906012445 33 117 4.8 14.5 0.00 0.00 0.00 49 1008.2
20260906011430 33 144 4.8 17.7 0.00 0.00 0.00 49 1008.1
20260906010424 34 109 4.8 17.7 0.00 0.00 0.00 47 1008.0
20260906005406 34 55 3.2 14.5 0.00 0.00 0.00 46 1008.0
20260906004341 35 194 4.8 12.9 0.00 0.00 0.00 42 1007.8
20260906003331 35 123 3.2 9.7 0.00 0.00 0.00 40 1007.8
20260906002311 35 159 3.2 9.7 0.00 0.00 0.00 40 1007.6
20260906001242 35 159 3.2 8.0 0.00 0.00 0.00 39 1007.6
20260906000256 35 83 4.8 11.3 0.00 0.00 0.00 39 1007.6
20260905234117 36 161 3.2 11.3 0.00 0.00 0.00 39 1007.6
20260905233129 36 149 4.8 11.3 0.00 0.00 0.00 38 1007.6
20260905230935 37 93 3.2 12.9 0.00 0.00 0.00 37 1007.7
20260905225932 37 109 1.6 9.7 0.00 0.00 0.00 37 1007.7
20260905224941 37 67 3.2 12.9 0.00 0.00 0.00 37 1007.6
20260905223909 37 100 4.8 14.5 0.00 0.00 0.00 37 1007.6
20260905222836 37 81 3.2 14.5 0.00 0.00 0.00 37 1007.7
20260905221828 37 92 4.8 14.5 0.00 0.00 0.00 38 1007.8
20260905220755 37 77 4.8 14.5 0.00 0.00 0.00 37 1007.9
20260905215815 37 108 3.2 14.5 0.00 0.00 0.00 37 1007.9
20260905214807 37 194 1.6 14.5 0.00 0.00 0.00 39 1007.9
20260905213752 37 158 4.8 12.9 0.00 0.00 0.00 38 1008.0
20260905212749 37 80 3.2 9.7 0.00 0.00 0.00 37 1007.9
20260905211808 38 200 3.2 9.7 0.00 0.00 0.00 37 1007.9
20260905210750 37 197 4.8 17.7 0.00 0.00 0.00 35 1008.0
20260905205719 38 138 6.4 17.7 0.00 0.00 0.00 36 1008.2
20260905204721 38 150 3.2 11.3 0.00 0.00 0.00 37 1008.4
20260905202619 37 168 4.8 16.1 0.00 0.00 0.00 39 1008.8
20260905201637 37 223 1.6 9.7 0.00 0.00 0.00 40 1009.0
20260905195457 37 217 4.8 12.9 0.00 0.00 0.00 40 1009.4
20260905194456 36 138 4.8 16.1 0.00 0.00 0.00 39 1009.6
20260905193458 36 143 3.2 16.1 0.00 0.00 0.00 39 1009.7
20260905192501 36 253 3.2 11.3 0.00 0.00 0.00 43 1009.9
20260905190314 36 174 4.8 14.5 0.00 0.00 0.00 42 1010.1
20260905185253 35 99 4.8 19.3 0.00 0.00 0.00 44 1010.3
20260905184224 35 181 4.8 19.3 0.00 0.00 0.00 44 1010.5